Flag for Sweden Weather past 2 weeks in Västerås, Sweden

Now
64 °F

Mild.


Feels Like: 64 °F
Forecast: 59 / 79 °F
Wind: 10 mph from Southwest

Location: Vasteras / Hasslo

Current Time: Aug 1, 2014 at 2:02:58 AM

Latest Report: Aug 1, 2014 at 1:20 AM


Visibility: N/A

Pressure: 29.77 "Hg

Humidity: 73%

Dew point: 55 °F

Location of VästeråsLocation

Historic Weather in Västerås — Graph

°F

Västerås temperature yesterday

Maximum temperature yesterday: 77 °F (at 1:20 PM)
Minimum temperature yesterday: 63 °F (at 5:20 AM)
Average temperature yesterday: 71 °F

Past Weeks' High & Low Weather Summary

 TemperatureHumidityPressure
High90 °F (Jul 24, 3:20 PM)100% (Jul 19, 2:20 AM)30.30 "Hg (Jul 19, 2:20 AM)
Low50 °F (Jul 19, 2:20 AM)31% (Jul 26, 2:20 PM)29.65 "Hg (Jul 30, 5:50 PM)
Average70 °F70%30.03 "Hg
* Reported Jul 17 12:20 AM — Aug 1 12:50 AM, Västerås, Weather by CustomWeather, © 2014

Note: Actual official high and low records may vary slightly from our data, if they occured in-between our weather recording intervals... More about our weather records

Advertising

Västerås weather history for previous 24 hours

 ConditionsComfort  
Time TempWeatherWind HumidityBarometerVisibility
12:50 AM
Aug 1
64 °FMild.10 mph73%29.77 "HgN/A
12:20 AM66 °FMild.12 mph64%29.74 "HgN/A
11:50 PM
Jul 31
66 °FMild.10 mph64%29.74 "HgN/A
11:20 PM66 °FMild.9 mph64%29.74 "HgN/A
10:50 PM66 °FClear.8 mph64%29.74 "Hg10 mi
10:20 PM68 °FSunny.9 mph56%29.74 "Hg10 mi
9:50 PM68 °FSunny.9 mph53%29.74 "Hg10 mi
9:20 PM70 °FSunny.10 mph53%29.71 "Hg10 mi
8:50 PM70 °FSunny.14 mph53%29.71 "Hg10 mi
8:20 PM72 °FSunny.12 mph50%29.71 "Hg10 mi
7:50 PM73 °FSunny.13 mph44%29.68 "Hg10 mi
7:20 PM73 °FSunny.14 mph47%29.68 "Hg10 mi
6:50 PM75 °FSunny.14 mph47%29.68 "Hg10 mi
6:20 PM75 °FSunny.13 mph41%29.68 "Hg10 mi
5:50 PM77 °FSunny.14 mph39%29.68 "Hg10 mi
5:20 PM77 °FPassing clouds.13 mph42%29.68 "HgN/A
4:50 PM77 °FSunny.15 mph39%29.68 "Hg10 mi
4:20 PM77 °FSunny.15 mph42%29.68 "Hg10 mi
3:50 PM77 °FSunny.16 mph42%29.65 "Hg10 mi
3:20 PM75 °FSunny.14 mph44%29.65 "Hg10 mi
2:50 PM77 °FSunny.17 mph42%29.65 "Hg10 mi
2:20 PM77 °FSunny.15 mph42%29.65 "Hg10 mi
1:50 PM77 °FSunny.16 mph42%29.65 "Hg10 mi
1:20 PM77 °FPassing clouds.15 mph42%29.65 "HgN/A
12:50 PM75 °FSunny.14 mph44%29.65 "Hg10 mi
12:20 PM75 °FSunny.13 mph47%29.65 "Hg10 mi
11:50 AM75 °FPassing clouds.13 mph50%29.65 "HgN/A
11:20 AM73 °FPassing clouds.14 mph50%29.65 "HgN/A
10:50 AM72 °FPassing clouds.14 mph57%29.65 "HgN/A
10:20 AM73 °FSunny.13 mph53%29.65 "Hg10 mi
9:50 AM70 °FPassing clouds.10 mph60%29.65 "HgN/A
9:20 AM70 °FSunny.9 mph60%29.65 "Hg10 mi
8:50 AM68 °FSunny.9 mph64%29.65 "Hg10 mi
8:20 AM66 °FSunny.9 mph73%29.65 "Hg10 mi
7:50 AM66 °FSunny.10 mph78%29.65 "Hg10 mi
7:20 AM66 °FSunny.9 mph78%29.65 "Hg10 mi
6:50 AM66 °FSunny.8 mph78%29.65 "Hg10 mi
6:20 AM64 °FSunny.7 mph83%29.65 "Hg10 mi
5:50 AM64 °FSunny.8 mph78%29.65 "Hg10 mi
5:20 AM63 °FMild.7 mph77%29.65 "HgN/A
4:50 AM64 °FMild.8 mph73%29.65 "HgN/A
4:20 AM64 °FMild.9 mph73%29.65 "HgN/A
3:50 AM66 °FMild.8 mph68%29.65 "HgN/A
3:20 AM66 °FPassing clouds.8 mph68%29.65 "HgN/A
2:50 AM68 °FPassing clouds.7 mph69%29.65 "HgN/A
2:20 AM68 °FPassing clouds.9 mph69%29.65 "HgN/A
Weather by CustomWeather, © 2014

See weather overviewHow to use our weather pages